QPF
0.00 0.00 0.00 0.03 0.15 0.08 0.11 0.11 0.11 0.05 0.14 0.22 0.21 0.14 0.03 0.03 0.01 0.00 0.01 0.05 0.06 0.02 0.01 0.04 0.08 0.03 0.00 0.00 0.00 0.00 0.00 0.00 0.01 0.01 0.00 0.01 0.01 0.01 0.00 0.00 0.00 0.00 0.00
0.00 0.00 0.00 0.02 0.05 0.10 0.11 0.12 0.11 0.07 0.14 0.24 0.26 0.10 0.02 0.01 0.01 0.00 0.00 0.02 0.01 0.01 0.01 0.05 0.05 0.02 0.00 0.00 0.00 0.01 0.01 0.01 0.02 0.02 0.01 0.00 0.00 0.00 0.00 0.00 0.00 0.00 0.00
0.00 0.00 0.00 0.00 0.00 0.01 0.03 0.05 0.04 0.07 0.15 0.25 0.14 0.04 0.04 0.02 0.01 0.01 0.00 0.02 0.01 0.00 0.00 0.00 0.00 0.00 0.00 0.00 0.00 0.01 0.02 0.01 0.01 0.01 0.00 0.00 0.00 0.00 0.00 0.00 0.00 0.00 0.00
0.00 0.00 0.00 0.00 0.00 0.00 0.00 0.00 0.00 0.02 0.15 0.18 0.20 0.09 0.07 0.03 0.03 0.03 0.02 0.03 0.03 0.04 0.02 0.00 0.01 0.01 0.01 0.01 0.00 0.00 0.00 0.00 0.00 0.00 0.00 0.00 0.00 0.00 0.00 0.00 0.00 0.00 0.00
0.00 0.00 0.00 0.00 0.00 0.00 0.00 0.00 0.00 0.00 0.06 0.21 0.21 0.09 0.06 0.11 0.10 0.14 0.05 0.03 0.05 0.03 0.06 0.04 0.06 0.03 0.03 0.03 0.01 0.00 0.00 0.00 0.00 0.00 0.00 0.00 0.00 0.00 0.00 0.00 0.00 0.00 0.00
0.00 0.01 0.03 0.02 0.01 0.00 0.01 0.02 0.01 0.03 0.08 0.23 0.20 0.09 0.09 0.13 0.15 0.16 0.08 0.03 0.01 0.02 0.02 0.05 0.05 0.03 0.01 0.00 0.00 0.00 0.00 0.00 0.00 0.00 0.00 0.00 0.00 0.00 0.00 0.00 0.00 0.00 0.00
0.01 0.06 0.05 0.08 0.08 0.06 0.06 0.05 0.04 0.09 0.16 0.21 0.15 0.14 0.08 0.04 0.06 0.02 0.01 0.00 0.01 0.00 0.00 0.00 0.00 0.00 0.00 0.00 0.00 0.00 0.00 0.00 0.00 0.00 0.00 0.00 0.00 0.00 0.00 0.00 0.00 0.00 0.03
0.02 0.10 0.10 0.13 0.17 0.15 0.06 0.08 0.06 0.08 0.16 0.20 0.21 0.21 0.07 0.02 0.01 0.01 0.00 0.00 0.00 0.00 0.00 0.00 0.00 0.00 0.00 0.00 0.00 0.00 0.00 0.00 0.00 0.00 0.00 0.00 0.00 0.00 0.00 0.00 0.00 0.02 0.33
0.00 0.01 0.04 0.08 0.16 0.12 0.10 0.15 0.10 0.11 0.25 0.24 0.19 0.15 0.08 0.01 0.00 0.00 0.00 0.00 0.00 0.00 0.00 0.00 0.00 0.00 0.00 0.00 0.00 0.00 0.00 0.00 0.00 0.00 0.00 0.00 0.00 0.00 0.00 0.00 0.00 0.08 0.56
0.05 0.08 0.09 0.13 0.14 0.13 0.11 0.14 0.11 0.08 0.13 0.16 0.12 0.02 0.00 0.00 0.00 0.00 0.00 0.00 0.00 0.00 0.00 0.00 0.00 0.00 0.00 0.00 0.00 0.00 0.00 0.00 0.00 0.00 0.00 0.00 0.00 0.00 0.00 0.00 0.01 0.11 0.20
0.01 0.03 0.06 0.11 0.08 0.07 0.06 0.07 0.05 0.02 0.03 0.02 0.00 0.00 0.00 0.00 0.00 0.00 0.00 0.00 0.00 0.00 0.00 0.00 0.00 0.00 0.00 0.00 0.00 0.00 0.00 0.00 0.00 0.00 0.00 0.02 0.01 0.00 0.00 0.00 0.01 0.01 0.01
0.00 0.00 0.03 0.07 0.03 0.01 0.02 0.05 0.03 0.00 0.00 0.00 0.00 0.00 0.00 0.00 0.00 0.00 0.00 0.00 0.00 0.00 0.00 0.00 0.00 0.00 0.00 0.00 0.00 0.00 0.00 0.00 0.00 0.00 0.00 0.02 0.00 0.00 0.00 0.00 0.00 0.06 0.00
0.00 0.00 0.00 0.00 0.00 0.00 0.01 0.02 0.00 0.00 0.00 0.00 0.00 0.00 0.00 0.00 0.00 0.00 0.00 0.00 0.00 0.00 0.00 0.00 0.00 0.00 0.00 0.00 0.00 0.00 0.00 0.00 0.00 0.00 0.00 0.00 0.00 0.00 0.00 0.00 0.00 0.01 0.02
0.00 0.00 0.00 0.00 0.00 0.00 0.00 0.00 0.00 0.00 0.00 0.00 0.00 0.00 0.00 0.00 0.00 0.00 0.00 0.00 0.00 0.00 0.00 0.00 0.00 0.00 0.00 0.00 0.00 0.00 0.00 0.00 0.00 0.00 0.00 0.00 0.01 0.00 0.00 0.00 0.00 0.01 0.11
0.00 0.00 0.00 0.00 0.00 0.00 0.00 0.00 0.00 0.00 0.00 0.00 0.00 0.00 0.00 0.00 0.00 0.00 0.00 0.00 0.00 0.00 0.00 0.00 0.00 0.00 0.00 0.00 0.00 0.00 0.00 0.00 0.00 0.00 0.00 0.00 0.00 0.00 0.00 0.00 0.00 0.02 0.06
0.00 0.00 0.00 0.00 0.00 0.00 0.00 0.00 0.00 0.00 0.00 0.00 0.00 0.00 0.00 0.00 0.00 0.00 0.00 0.00 0.00 0.00 0.00 0.00 0.00 0.00 0.00 0.00 0.00 0.00 0.00 0.00 0.00 0.00 0.00 0.00 0.00 0.00 0.00 0.00 0.00 0.00 0.02
0.00 0.00 0.00 0.00 0.00 0.00 0.00 0.00 0.00 0.00 0.00 0.00 0.00 0.00 0.00 0.00 0.00 0.00 0.00 0.00 0.00 0.00 0.00 0.00 0.00 0.00 0.00 0.00 0.00 0.00 0.00 0.00 0.00 0.00 0.00 0.00 0.00 0.00 0.00 0.00 0.00 0.00 0.00
0.00 0.00 0.00 0.00 0.00 0.00 0.00 0.00 0.00 0.00 0.00 0.00 0.00 0.00 0.00 0.00 0.00 0.00 0.00 0.00 0.00 0.00 0.00 0.00 0.00 0.00 0.00 0.00 0.00 0.00 0.00 0.00 0.00 0.00 0.00 0.00 0.00 0.00 0.00 0.00 0.00 0.00 0.00
0.00 0.00 0.00 0.00 0.00 0.00 0.00 0.00 0.00 0.00 0.00 0.00 0.00 0.00 0.00 0.00 0.00 0.00 0.00 0.00 0.00 0.00 0.00 0.00 0.00 0.00 0.00 0.00 0.00 0.00 0.00 0.00 0.00 0.00 0.00 0.00 0.00 0.00 0.00 0.00 0.00 0.00 0.00
0.00 0.00 0.00 0.00 0.00 0.00 0.00 0.00 0.00 0.00 0.00 0.00 0.00 0.00 0.00 0.00 0.00 0.00 0.00 0.00 0.00 0.00 0.00 0.00 0.00 0.00 0.00 0.00 0.00 0.00 0.00 0.00 0.00 0.00 0.00 0.00 0.00 0.00 0.00 0.00 0.00 0.00 0.00
0.00 0.00 0.00 0.00 0.00 0.00 0.00 0.00 0.00 0.00 0.00 0.00 0.00 0.00 0.00 0.00 0.00 0.00 0.00 0.00 0.00 0.00 0.00 0.00 0.00 0.00 0.00 0.00 0.00 0.00 0.00 0.00 0.00 0.00 0.00 0.00 0.00 0.00 0.00 0.00 0.00 0.00 0.00
0.00 0.00 0.00 0.00 0.00 0.00 0.00 0.00 0.00 0.00 0.00 0.00 0.00 0.00 0.00 0.00 0.00 0.00 0.00 0.00 0.00 0.00 0.00 0.00 0.00 0.00 0.00 0.00 0.00 0.00 0.00 0.00 0.00 0.00 0.00 0.00 0.00 0.00 0.00 0.00 0.00 0.00 0.00
0.00 0.00 0.00 0.00 0.00 0.00 0.00 0.00 0.00 0.00 0.00 0.00 0.00 0.00 0.00 0.00 0.00 0.00 0.00 0.00 0.00 0.00 0.00 0.00 0.00 0.00 0.00 0.00 0.00 0.00 0.00 0.00 0.00 0.00 0.00 0.00 0.00 0.00 0.00 0.00 0.00 0.00 0.00
0.00 0.00 0.00 0.00 0.00 0.00 0.00 0.00 0.00 0.00 0.00 0.00 0.00 0.00 0.00 0.00 0.00 0.00 0.00 0.00 0.00 0.00 0.00 0.00 0.00 0.00 0.00 0.00 0.00 0.00 0.00 0.00 0.00 0.00 0.00 0.00 0.00 0.00 0.00 0.00 0.00 0.00 0.00
0.00 0.00 0.00 0.00 0.00 0.00 0.00 0.00 0.00 0.00 0.00 0.00 0.00 0.00 0.00 0.00 0.00 0.00 0.00 0.00 0.00 0.00 0.02 0.02 0.01 0.00 0.00 0.00 0.00 0.00 0.00 0.00 0.00 0.00 0.01 0.00 0.00 0.00 0.00 0.00 0.00 0.00 0.00
0.00 0.00 0.00 0.00 0.00 0.00 0.00 0.00 0.00 0.00 0.00 0.00 0.00 0.00 0.00 0.00 0.00 0.00 0.00 0.04 0.06 0.03 0.00 0.02 0.04 0.00 0.00 0.00 0.00 0.00 0.00 0.00 0.00 0.00 0.01 0.00 0.00 0.00 0.00 0.00 0.00 0.00 0.00
MSLP
1016.28 1016.12 1016.06 1015.99 1015.99 1016.12 1016.15 1016.21 1016.15 1016.14 1016.39 1016.53 1016.57 1016.44 1016.54 1016.62 1016.76 1016.89 1016.97 1017.07 1016.99 1017.12 1017.11 1017.17 1017.13 1017.21 1017.26 1017.37 1017.45 1017.62 1017.58 1017.67 1017.75 1017.83 1018.00 1018.04 1018.17 1018.25 1018.33 1018.49 1018.29 1017.93 1018.62
1015.85 1016.20 1016.07 1016.09 1016.16 1016.32 1016.45 1016.56 1016.57 1016.36 1016.55 1016.75 1016.82 1016.65 1016.76 1016.86 1016.94 1017.10 1017.19 1017.24 1017.24 1017.40 1017.39 1017.45 1017.58 1017.73 1017.64 1017.60 1017.74 1017.79 1017.85 1017.90 1018.00 1018.08 1018.18 1018.42 1018.51 1018.59 1018.66 1018.74 1018.73 1018.70 1018.90
1016.00 1016.11 1016.15 1016.29 1016.32 1016.44 1016.66 1016.71 1016.84 1016.84 1016.90 1016.82 1016.87 1016.87 1016.91 1016.97 1017.13 1017.30 1017.37 1017.44 1017.48 1017.49 1017.61 1017.73 1017.89 1017.99 1018.10 1018.11 1018.05 1018.03 1018.10 1018.12 1018.20 1018.36 1018.44 1018.08 1018.31 1018.78 1018.88 1018.96 1018.98 1019.06 1019.18
1016.04 1016.25 1016.32 1016.49 1016.52 1016.90 1017.14 1017.17 1017.08 1017.08 1017.18 1017.21 1017.03 1017.03 1017.01 1017.10 1017.19 1017.45 1017.63 1017.64 1017.70 1017.66 1017.83 1017.95 1018.03 1018.16 1018.29 1018.35 1018.35 1018.42 1018.48 1018.46 1018.46 1018.57 1018.12 1018.13 1018.11 1018.86 1018.90 1018.86 1018.95 1019.05 1019.15
1016.25 1016.29 1016.46 1016.61 1016.87 1017.13 1017.35 1017.44 1017.31 1017.30 1017.44 1017.70 1017.36 1017.33 1017.22 1017.31 1017.54 1017.63 1017.87 1017.93 1017.95 1018.01 1018.26 1018.34 1018.39 1018.49 1018.55 1018.60 1018.71 1018.65 1018.57 1018.53 1018.47 1018.27 1018.22 1018.38 1018.17 1018.63 1018.75 1018.64 1019.09 1018.93 1019.57
1016.39 1016.52 1016.73 1016.94 1017.26 1017.50 1017.48 1017.51 1017.61 1017.75 1018.08 1018.05 1017.76 1017.70 1017.59 1017.42 1017.66 1017.77 1017.91 1018.06 1018.16 1018.34 1018.50 1018.66 1018.73 1018.77 1018.83 1018.83 1018.76 1018.69 1018.50 1018.34 1018.38 1018.13 1018.31 1018.40 1018.45 1018.90 1018.92 1019.18 1019.50 1019.34 1019.53
1016.54 1016.71 1016.95 1017.15 1017.33 1017.77 1017.70 1018.11 1018.34 1018.43 1018.64 1018.41 1018.09 1017.99 1017.75 1017.60 1017.70 1017.89 1018.03 1018.18 1018.36 1018.48 1018.66 1018.81 1018.93 1019.05 1019.00 1018.92 1018.80 1018.56 1018.33 1018.46 1018.33 1018.49 1018.50 1018.64 1018.75 1019.27 1019.25 1019.66 1019.54 1019.39 1020.01
1016.71 1017.19 1017.36 1017.40 1017.73 1018.10 1018.53 1018.62 1018.63 1018.83 1018.76 1018.36 1018.46 1018.14 1018.01 1017.93 1017.81 1017.94 1018.21 1018.39 1018.54 1018.69 1018.82 1019.04 1019.18 1019.13 1019.07 1018.95 1018.78 1018.65 1018.55 1018.74 1018.64 1018.64 1018.66 1018.64 1018.98 1019.35 1019.37 1019.51 1019.37 1019.69 1020.15
1016.62 1017.15 1017.54 1017.80 1017.79 1018.08 1018.43 1018.83 1018.72 1018.87 1018.94 1018.49 1018.35 1018.26 1018.05 1018.05 1018.07 1018.22 1018.50 1018.65 1018.73 1018.84 1019.00 1019.17 1019.22 1019.12 1019.06 1018.99 1019.07 1019.05 1018.96 1018.91 1018.60 1018.53 1018.58 1018.74 1019.25 1019.27 1019.21 1019.24 1019.15 1019.29 1019.12
1016.92 1017.13 1017.45 1017.88 1017.84 1018.07 1018.37 1018.65 1018.56 1018.76 1018.64 1018.51 1018.58 1018.40 1018.38 1018.36 1018.46 1018.68 1018.78 1018.86 1018.97 1018.98 1019.10 1019.21 1019.18 1019.15 1019.13 1019.22 1019.20 1019.08 1019.07 1019.00 1018.46 1018.51 1018.64 1018.73 1019.30 1019.06 1018.96 1018.88 1018.79 1018.68 1018.58
1017.11 1017.27 1017.42 1017.71 1018.08 1018.16 1018.30 1018.31 1018.50 1018.62 1018.58 1018.73 1018.65 1018.86 1018.69 1018.50 1018.63 1018.63 1019.11 1019.06 1019.14 1019.11 1019.16 1019.21 1019.23 1019.22 1019.17 1019.23 1019.21 1019.17 1019.04 1018.42 1018.29 1018.25 1018.30 1018.98 1018.98 1018.68 1018.86 1018.63 1018.49 1018.39 1018.49
1017.15 1017.45 1017.65 1017.79 1018.00 1018.10 1018.22 1018.57 1018.61 1018.55 1018.64 1018.77 1018.89 1018.95 1018.81 1018.84 1019.01 1018.93 1019.18 1019.29 1019.36 1019.35 1019.35 1019.30 1019.26 1019.13 1018.97 1018.55 1018.51 1018.81 1018.33 1018.36 1018.30 1018.09 1018.10 1018.74 1018.50 1018.36 1018.53 1018.51 1018.39 1018.69 1018.44
1017.05 1017.36 1017.67 1017.78 1018.04 1018.11 1018.38 1018.61 1018.63 1018.76 1018.65 1018.77 1018.94 1018.91 1019.00 1018.93 1019.09 1018.92 1019.01 1019.07 1019.22 1019.42 1019.06 1018.95 1018.80 1018.58 1018.43 1018.35 1018.15 1018.03 1018.17 1018.29 1018.07 1018.20 1018.01 1018.22 1018.16 1018.26 1018.36 1018.18 1018.51 1018.40 1018.25
1017.08 1017.31 1017.58 1017.68 1018.04 1018.21 1018.31 1018.44 1018.62 1018.55 1018.68 1018.71 1018.90 1018.96 1019.11 1018.83 1019.05 1019.08 1018.98 1019.22 1019.32 1019.13 1019.05 1018.87 1018.52 1018.48 1018.49 1018.41 1018.09 1017.96 1017.93 1017.79 1017.78 1017.79 1017.65 1018.20 1018.27 1018.08 1017.91 1018.14 1018.54 1018.36 1018.32
1016.93 1017.26 1017.43 1017.66 1018.09 1018.27 1018.36 1018.52 1018.61 1018.74 1018.79 1018.68 1018.81 1019.19 1018.95 1019.00 1019.07 1019.17 1019.16 1019.12 1019.04 1018.97 1018.76 1018.61 1018.62 1018.44 1018.34 1018.17 1018.01 1018.01 1017.85 1017.72 1017.57 1017.55 1017.56 1018.01 1018.05 1017.86 1017.90 1018.11 1018.35 1018.15 1018.23
1016.60 1017.00 1017.33 1017.76 1018.10 1018.25 1018.34 1018.58 1018.61 1018.79 1018.80 1018.83 1018.76 1018.86 1019.06 1019.20 1019.23 1019.11 1019.12 1019.02 1018.96 1019.01 1018.84 1018.79 1018.61 1018.38 1018.14 1018.06 1017.90 1017.86 1017.71 1017.67 1017.74 1017.65 1017.66 1017.90 1018.05 1017.96 1017.99 1018.23 1018.29 1018.10 1018.16
1016.35 1016.87 1017.41 1017.78 1017.94 1018.18 1018.33 1018.49 1018.61 1018.64 1018.49 1018.59 1018.59 1018.99 1019.16 1019.23 1019.36 1019.52 1019.37 1019.16 1019.08 1019.23 1019.15 1018.82 1018.66 1018.43 1018.25 1018.11 1018.08 1017.83 1017.90 1018.09 1018.10 1018.22 1018.06 1017.96 1017.83 1018.19 1018.22 1018.20 1018.22 1018.20 1018.10
1016.33 1016.95 1017.45 1017.68 1017.80 1018.08 1018.30 1018.37 1018.44 1018.49 1018.52 1018.64 1018.75 1018.91 1019.08 1019.18 1019.49 1019.63 1019.44 1019.26 1019.41 1019.28 1019.17 1018.88 1018.66 1018.50 1018.51 1018.42 1018.25 1018.16 1018.09 1017.98 1018.25 1018.15 1017.94 1018.13 1018.02 1017.90 1018.08 1018.14 1018.08 1018.23 1018.06
1016.25 1016.89 1017.34 1017.72 1017.87 1018.12 1018.34 1018.41 1018.62 1018.66 1018.60 1018.70 1018.78 1018.85 1019.05 1019.25 1019.58 1019.65 1019.49 1019.59 1019.64 1019.44 1019.15 1019.05 1018.89 1018.88 1018.69 1018.49 1018.30 1018.37 1018.26 1018.05 1018.05 1017.97 1018.07 1018.04 1017.99 1018.09 1017.89 1017.84 1018.00 1018.17 1018.02
1016.09 1016.81 1017.17 1017.46 1017.91 1018.29 1018.38 1018.65 1018.57 1018.65 1018.64 1018.61 1018.64 1018.73 1019.03 1019.15 1019.48 1019.60 1019.60 1019.72 1019.63 1019.27 1019.34 1019.30 1019.31 1019.22 1019.12 1018.90 1018.38 1018.17 1018.19 1018.17 1018.03 1018.03 1018.00 1017.85 1017.99 1018.07 1017.75 1017.77 1017.62 1017.49 1017.93
1015.81 1016.47 1016.92 1017.24 1017.79 1018.26 1018.47 1018.49 1018.48 1018.35 1018.56 1018.66 1018.62 1018.81 1018.98 1019.10 1019.37 1019.59 1019.59 1019.62 1019.73 1019.54 1019.54 1019.59 1019.45 1019.41 1019.13 1019.23 1018.63 1018.04 1017.84 1017.95 1017.92 1017.80 1017.88 1017.74 1017.71 1017.65 1017.75 1017.80 1017.78 1017.49 1017.31
1015.45 1016.06 1016.62 1016.97 1017.47 1018.07 1018.19 1018.25 1018.16 1018.27 1018.42 1018.48 1018.52 1018.68 1018.74 1018.95 1019.29 1019.46 1019.69 1019.65 1019.70 1019.67 1019.73 1019.66 1019.67 1019.50 1019.43 1019.42 1018.82 1018.45 1017.67 1017.51 1017.48 1017.55 1017.82 1017.93 1017.64 1017.42 1017.42 1017.53 1017.73 1017.72 1017.51
1014.85 1015.39 1016.21 1016.75 1017.18 1017.87 1018.14 1018.28 1018.16 1018.22 1018.47 1018.57 1018.53 1018.54 1018.61 1018.92 1019.09 1019.35 1019.59 1019.73 1019.69 1019.72 1019.65 1019.67 1019.79 1019.78 1019.26 1019.41 1019.50 1019.08 1018.24 1017.87 1018.00 1017.70 1017.71 1017.73 1017.63 1017.40 1017.18 1017.30 1017.53 1017.67 1017.69
1014.00 1014.83 1015.75 1016.50 1016.81 1017.37 1017.87 1017.96 1017.83 1017.60 1017.80 1017.89 1018.17 1018.40 1018.51 1018.74 1018.98 1019.18 1019.42 1019.73 1019.85 1019.77 1019.87 1019.68 1019.62 1019.77 1019.61 1019.22 1019.32 1019.44 1019.48 1019.38 1018.64 1017.60 1017.69 1017.63 1017.54 1017.27 1017.21 1017.00 1017.10 1017.55 1017.79
1013.71 1014.26 1015.10 1016.10 1016.54 1017.05 1017.49 1017.62 1017.69 1017.62 1017.63 1017.96 1018.16 1018.35 1018.52 1018.73 1018.84 1019.05 1019.32 1019.51 1019.77 1019.69 1019.87 1019.89 1019.61 1019.61 1019.59 1019.42 1019.28 1019.30 1019.38 1019.29 1019.35 1018.73 1017.57 1017.39 1017.27 1017.43 1017.26 1017.13 1016.99 1017.28 1017.67
1013.48 1014.07 1014.74 1015.52 1016.11 1016.66 1017.12 1017.22 1017.59 1017.65 1017.57 1017.72 1017.84 1018.00 1018.21 1018.43 1018.53 1018.93 1019.14 1019.35 1019.57 1019.62 1019.65 1019.20 1019.40 1019.52 1019.53 1019.57 1019.48 1019.41 1019.11 1018.96 1018.84 1018.71 1018.16 1017.72 1017.37 1017.17 1017.34 1017.29 1017.25 1017.33 1017.49
Thickness
5738 5741 5743 5745 5747 5747 5748 5748 5750 5751 5750 5750 5750 5753 5753 5753 5752 5752 5753 5753 5756 5754 5757 5756 5757 5757 5756 5755 5754 5752 5754 5753 5752 5752 5751 5750 5748 5747 5744 5741 5742 5745 5739
5740 5740 5743 5744 5745 5744 5745 5745 5746 5749 5748 5747 5748 5750 5751 5752 5751 5751 5751 5751 5753 5753 5755 5754 5752 5751 5753 5755 5755 5753 5753 5752 5752 5751 5749 5746 5745 5743 5741 5739 5739 5739 5737
5739 5739 5741 5741 5742 5742 5741 5741 5742 5744 5746 5747 5747 5749 5749 5750 5750 5749 5750 5750 5751 5753 5752 5751 5750 5751 5751 5751 5753 5753 5752 5753 5751 5749 5748 5749 5747 5742 5739 5738 5738 5737 5736
5738 5738 5738 5738 5738 5737 5736 5737 5739 5741 5742 5743 5744 5746 5748 5750 5749 5748 5748 5749 5750 5752 5751 5750 5750 5751 5751 5750 5752 5751 5751 5752 5751 5750 5752 5751 5750 5743 5741 5742 5741 5740 5738
5736 5736 5735 5736 5733 5734 5734 5734 5736 5737 5739 5738 5738 5743 5746 5749 5748 5747 5747 5749 5750 5751 5748 5750 5750 5751 5751 5751 5750 5751 5753 5753 5753 5754 5753 5751 5752 5747 5746 5747 5741 5742 5731
5733 5732 5731 5731 5730 5729 5731 5732 5733 5734 5733 5734 5735 5740 5744 5748 5747 5746 5747 5748 5750 5749 5748 5748 5749 5750 5750 5751 5752 5753 5755 5756 5756 5757 5754 5753 5751 5747 5745 5740 5734 5734 5730
5731 5729 5728 5727 5728 5726 5727 5726 5726 5727 5727 5728 5731 5737 5742 5747 5749 5748 5750 5750 5749 5749 5748 5749 5749 5749 5751 5752 5754 5756 5758 5757 5756 5755 5753 5752 5749 5744 5742 5732 5732 5731 5720
5729 5725 5725 5725 5724 5721 5719 5720 5722 5723 5726 5727 5731 5735 5741 5745 5749 5752 5750 5749 5750 5750 5750 5749 5749 5751 5752 5754 5757 5758 5758 5755 5755 5755 5755 5754 5750 5745 5744 5737 5734 5726 5712
5730 5726 5725 5723 5721 5720 5720 5719 5722 5724 5724 5726 5732 5736 5743 5746 5750 5752 5750 5750 5751 5751 5751 5750 5751 5754 5755 5756 5756 5755 5756 5757 5758 5759 5759 5755 5750 5747 5743 5738 5735 5729 5723
5729 5727 5726 5723 5720 5723 5722 5720 5723 5723 5726 5730 5732 5739 5743 5746 5749 5749 5750 5750 5751 5752 5753 5753 5755 5756 5757 5756 5756 5757 5757 5758 5761 5761 5758 5754 5749 5749 5747 5743 5739 5738 5735
5730 5729 5727 5724 5721 5721 5720 5721 5724 5727 5731 5733 5736 5738 5743 5747 5748 5750 5748 5750 5751 5753 5754 5754 5756 5757 5758 5757 5758 5758 5759 5763 5764 5764 5762 5755 5753 5753 5749 5746 5745 5742 5738
5728 5729 5729 5726 5724 5724 5723 5723 5726 5729 5732 5734 5736 5740 5744 5747 5747 5749 5748 5750 5751 5753 5754 5756 5758 5760 5761 5763 5764 5763 5766 5765 5765 5765 5763 5758 5758 5756 5751 5747 5747 5741 5742
5732 5731 5729 5729 5728 5727 5727 5728 5730 5731 5734 5736 5739 5742 5744 5748 5747 5751 5751 5752 5753 5754 5758 5760 5761 5764 5766 5766 5768 5770 5768 5767 5767 5764 5764 5764 5761 5756 5752 5752 5748 5748 5746
5732 5732 5732 5731 5730 5730 5730 5731 5732 5734 5737 5738 5740 5744 5745 5750 5749 5750 5752 5753 5754 5758 5760 5762 5765 5767 5767 5767 5771 5772 5771 5771 5770 5768 5768 5764 5760 5758 5757 5754 5749 5748 5747
5734 5734 5734 5733 5732 5732 5734 5733 5733 5734 5736 5740 5743 5743 5749 5748 5749 5750 5752 5754 5757 5760 5763 5765 5766 5768 5769 5770 5771 5771 5772 5772 5771 5771 5768 5763 5761 5761 5758 5754 5751 5750 5749
5739 5736 5736 5734 5733 5734 5735 5734 5734 5735 5738 5741 5745 5748 5748 5747 5748 5751 5753 5756 5759 5761 5764 5766 5768 5770 5771 5770 5772 5773 5772 5770 5769 5768 5766 5763 5763 5761 5760 5756 5753 5753 5750
5743 5739 5735 5735 5735 5736 5736 5736 5737 5738 5741 5744 5748 5747 5747 5749 5749 5750 5753 5756 5759 5761 5763 5766 5768 5770 5771 5772 5772 5773 5770 5766 5765 5762 5763 5763 5762 5760 5760 5760 5757 5756 5753
5746 5740 5737 5737 5737 5736 5737 5738 5738 5740 5742 5744 5747 5748 5749 5750 5750 5751 5754 5757 5759 5760 5762 5766 5769 5770 5770 5771 5770 5771 5769 5769 5765 5765 5765 5761 5761 5762 5762 5764 5761 5757 5756
5748 5742 5738 5737 5737 5737 5738 5738 5737 5738 5742 5744 5747 5749 5750 5751 5750 5752 5755 5755 5758 5760 5763 5765 5767 5768 5768 5771 5772 5770 5770 5769 5767 5766 5765 5765 5764 5764 5765 5766 5764 5760 5760
5751 5745 5743 5741 5739 5737 5737 5737 5738 5739 5743 5746 5749 5751 5752 5753 5753 5754 5755 5756 5759 5761 5763 5764 5764 5765 5765 5766 5770 5772 5771 5769 5768 5767 5766 5768 5768 5767 5767 5766 5765 5765 5762
5754 5748 5745 5743 5741 5738 5737 5736 5738 5740 5744 5747 5750 5752 5754 5754 5755 5755 5757 5758 5758 5761 5761 5761 5763 5762 5765 5765 5767 5772 5773 5772 5770 5771 5768 5770 5772 5773 5769 5766 5765 5765 5765
5756 5752 5748 5746 5744 5741 5741 5742 5744 5744 5746 5748 5751 5754 5756 5756 5756 5756 5757 5758 5759 5760 5760 5761 5760 5760 5762 5764 5764 5765 5764 5771 5775 5776 5772 5770 5773 5775 5773 5769 5766 5764 5763
5760 5758 5753 5750 5748 5744 5743 5742 5744 5745 5745 5747 5751 5755 5756 5755 5756 5757 5758 5757 5758 5759 5760 5761 5759 5759 5761 5763 5763 5761 5760 5757 5763 5774 5772 5773 5774 5776 5776 5773 5768 5765 5764
5767 5764 5758 5753 5752 5750 5746 5745 5747 5748 5746 5752 5754 5757 5757 5756 5756 5757 5757 5756 5756 5756 5758 5760 5761 5760 5760 5761 5763 5763 5761 5758 5757 5762 5772 5774 5776 5777 5777 5777 5775 5769 5767
5770 5768 5764 5756 5755 5753 5749 5749 5749 5749 5751 5754 5755 5756 5757 5757 5757 5756 5755 5755 5754 5756 5756 5757 5761 5762 5762 5762 5763 5762 5761 5762 5760 5759 5762 5770 5779 5778 5779 5779 5779 5775 5771
5770 5769 5766 5759 5758 5757 5754 5754 5751 5750 5753 5754 5756 5758 5760 5761 5759 5756 5756 5756 5755 5756 5756 5762 5763 5763 5763 5763 5764 5764 5764 5763 5762 5762 5763 5768 5771 5778 5779 5779 5779 5776 5774